User: anonymous   Login
Location: Unspecified
(0.0000°N, 0.0000°E)
Time: 03:34:26
(UTC+00:00)
Language:

Kosmos-2100 - Orbit

View from above orbital plane
View from above orbital plane
View from above satellite
View from above satellite

Ground track
Ground track

The orbit data is extracted from the following two-line orbital elements,

1 20804U 90083A   17173.90029122 +.00000030 +00000-0 +15578-4 0  9991
2 20804 082.9406 077.1249 0038157 062.7412 344.3509 13.74303198342513
Epoch (UTC): 22 June 2017 21:36:25
Eccentricity: 0.0038157
inclination: 82.9406°
perigee height: 956 km
apogee height: 1012 km
right ascension of ascending node: 77.1249°
argument of perigee: 62.7412°
revolutions per day: 13.74303198
mean anomaly at epoch: 344.3509°
orbit number at epoch: 34251

The dashed part of the orbit path shows where the satellite is in the earth's shadow,  

DLR